Year,Month,Day,Hour,Minute,Value (Times are PST for temperature in C)
2017,09,05,00,00,21.60
2017,09,05,00,01,21.60
2017,09,05,00,02,21.60
2017,09,05,00,03,21.50
2017,09,05,00,04,21.40
2017,09,05,00,05,21.40
2017,09,05,00,06,21.30
2017,09,05,00,07,21.30
2017,09,05,00,08,21.20
2017,09,05,00,09,21.20
2017,09,05,00,10,21.10
2017,09,05,00,11,21.10
2017,09,05,00,12,21.00
2017,09,05,00,13,21.00
2017,09,05,00,14,20.90
2017,09,05,00,15,20.90
2017,09,05,00,16,20.90
2017,09,05,00,17,20.80
2017,09,05,00,18,20.80
2017,09,05,00,19,20.80
2017,09,05,00,20,20.80
2017,09,05,00,21,20.80
2017,09,05,00,22,20.80
2017,09,05,00,23,20.80
2017,09,05,00,24,20.80
2017,09,05,00,25,20.80
2017,09,05,00,26,20.80
2017,09,05,00,27,20.80
2017,09,05,00,28,20.80
2017,09,05,00,29,20.80
2017,09,05,00,30,20.80
2017,09,05,00,31,20.90
2017,09,05,00,32,20.90
2017,09,05,00,33,20.90
2017,09,05,00,34,21.00
2017,09,05,00,35,21.00
2017,09,05,00,36,21.00
2017,09,05,00,37,21.10
2017,09,05,00,38,21.10
2017,09,05,00,39,21.10
2017,09,05,00,40,21.10
2017,09,05,00,41,21.10
2017,09,05,00,42,21.10
2017,09,05,00,43,21.10
2017,09,05,00,44,21.10
2017,09,05,00,45,21.10
2017,09,05,00,46,21.10
2017,09,05,00,47,21.20
2017,09,05,00,48,21.20
2017,09,05,00,49,21.20
2017,09,05,00,50,21.30
2017,09,05,00,51,21.30
2017,09,05,00,52,21.30
2017,09,05,00,53,21.30
2017,09,05,00,54,21.30
2017,09,05,00,55,21.30
2017,09,05,00,56,21.30
2017,09,05,00,57,21.40
2017,09,05,00,58,21.40
2017,09,05,00,59,21.40
2017,09,05,01,00,21.40
2017,09,05,01,01,21.40
2017,09,05,01,02,21.40
2017,09,05,01,03,21.40
2017,09,05,01,04,21.50
2017,09,05,01,05,21.50
2017,09,05,01,06,21.50
2017,09,05,01,07,21.50
2017,09,05,01,08,21.50
2017,09,05,01,09,21.50
2017,09,05,01,10,21.50
2017,09,05,01,11,21.50
2017,09,05,01,12,21.50
2017,09,05,01,13,21.50
2017,09,05,01,14,21.50
2017,09,05,01,15,21.60
2017,09,05,01,16,21.60
2017,09,05,01,17,21.60
2017,09,05,01,18,21.60
2017,09,05,01,19,21.60
2017,09,05,01,20,21.60
2017,09,05,01,21,21.60
2017,09,05,01,22,21.60
2017,09,05,01,23,21.60
2017,09,05,01,24,21.60
2017,09,05,01,25,21.60
2017,09,05,01,26,21.60
2017,09,05,01,27,21.60
2017,09,05,01,28,21.70
2017,09,05,01,29,21.70
2017,09,05,01,30,21.70
2017,09,05,01,31,21.70
2017,09,05,01,32,21.70
2017,09,05,01,33,21.70
2017,09,05,01,34,21.70
2017,09,05,01,35,21.60
2017,09,05,01,36,21.60
2017,09,05,01,37,21.60
2017,09,05,01,38,21.60
2017,09,05,01,39,21.60
2017,09,05,01,40,21.60
2017,09,05,01,41,21.60
2017,09,05,01,42,21.60
2017,09,05,01,43,21.60
2017,09,05,01,44,21.50
2017,09,05,01,45,21.50
2017,09,05,01,46,21.50
2017,09,05,01,47,21.50
2017,09,05,01,48,21.50
2017,09,05,01,49,21.50
2017,09,05,01,50,21.50
2017,09,05,01,51,21.50
2017,09,05,01,52,21.50
2017,09,05,01,53,21.50
2017,09,05,01,54,21.50
2017,09,05,01,55,21.50
2017,09,05,01,56,21.50
2017,09,05,01,57,21.50
2017,09,05,01,58,21.50
2017,09,05,01,59,21.50
2017,09,05,02,00,21.50
2017,09,05,02,01,21.50
2017,09,05,02,02,21.50
2017,09,05,02,03,21.40
2017,09,05,02,04,21.40
2017,09,05,02,05,21.40
2017,09,05,02,06,21.40
2017,09,05,02,07,21.40
2017,09,05,02,08,21.40
2017,09,05,02,09,21.40
2017,09,05,02,10,21.40
2017,09,05,02,11,21.40
2017,09,05,02,12,21.30
2017,09,05,02,13,21.30
2017,09,05,02,14,21.30
2017,09,05,02,15,21.30
2017,09,05,02,16,21.30
2017,09,05,02,17,21.30
2017,09,05,02,18,21.20
2017,09,05,02,19,21.20
2017,09,05,02,20,21.20
2017,09,05,02,21,21.20
2017,09,05,02,22,21.20
2017,09,05,02,23,21.20
2017,09,05,02,24,21.20
2017,09,05,02,25,21.20
2017,09,05,02,26,21.10
2017,09,05,02,27,21.10
2017,09,05,02,28,21.10
2017,09,05,02,29,21.10
2017,09,05,02,30,21.10
2017,09,05,02,31,21.10
2017,09,05,02,32,21.10
2017,09,05,02,33,21.10
2017,09,05,02,34,21.00
2017,09,05,02,35,21.00
2017,09,05,02,36,21.00
2017,09,05,02,37,21.00
2017,09,05,02,38,21.00
2017,09,05,02,39,21.00
2017,09,05,02,40,21.00
2017,09,05,02,41,21.00
2017,09,05,02,42,20.90
2017,09,05,02,43,20.90
2017,09,05,02,44,20.90
2017,09,05,02,45,20.90
2017,09,05,02,46,20.90
2017,09,05,02,47,20.90
2017,09,05,02,48,20.90
2017,09,05,02,49,20.90
2017,09,05,02,50,20.90
2017,09,05,02,51,20.90
2017,09,05,02,52,20.90
2017,09,05,02,53,20.90
2017,09,05,02,54,20.90
2017,09,05,02,55,20.80
2017,09,05,02,56,20.80
2017,09,05,02,57,20.90
2017,09,05,02,58,20.90
2017,09,05,02,59,20.90
2017,09,05,03,00,20.90
2017,09,05,03,01,20.80
2017,09,05,03,02,20.80
2017,09,05,03,03,20.80
2017,09,05,03,04,20.80
2017,09,05,03,05,20.80
2017,09,05,03,06,20.80
2017,09,05,03,07,20.80
2017,09,05,03,08,20.80
2017,09,05,03,09,20.80
2017,09,05,03,10,20.80
2017,09,05,03,11,20.80
2017,09,05,03,12,20.80
2017,09,05,03,13,20.80
2017,09,05,03,14,20.80
2017,09,05,03,15,20.80
2017,09,05,03,16,20.70
2017,09,05,03,17,20.70
2017,09,05,03,18,20.70
2017,09,05,03,19,20.70
2017,09,05,03,20,20.70
2017,09,05,03,21,20.70
2017,09,05,03,22,20.70
2017,09,05,03,23,20.70
2017,09,05,03,24,20.70
2017,09,05,03,25,20.70
2017,09,05,03,26,20.70
2017,09,05,03,27,20.70
2017,09,05,03,28,20.60
2017,09,05,03,29,20.60
2017,09,05,03,30,20.60
2017,09,05,03,31,20.60
2017,09,05,03,32,20.60
2017,09,05,03,33,20.60
2017,09,05,03,34,20.60
2017,09,05,03,35,20.60
2017,09,05,03,36,20.50
2017,09,05,03,37,20.50
2017,09,05,03,38,20.50
2017,09,05,03,39,20.50
2017,09,05,03,40,20.50
2017,09,05,03,41,20.40
2017,09,05,03,42,20.40
2017,09,05,03,43,20.40
2017,09,05,03,44,20.40
2017,09,05,03,45,20.40
2017,09,05,03,46,20.40
2017,09,05,03,47,20.40
2017,09,05,03,48,20.40
2017,09,05,03,49,20.40
2017,09,05,03,50,20.40
2017,09,05,03,51,20.40
2017,09,05,03,52,20.40
2017,09,05,03,53,20.40
2017,09,05,03,54,20.40
2017,09,05,03,55,20.40
2017,09,05,03,56,20.40
2017,09,05,03,57,20.30
2017,09,05,03,58,20.30
2017,09,05,03,59,20.30
2017,09,05,04,00,20.30
2017,09,05,04,01,20.30
2017,09,05,04,02,20.30
2017,09,05,04,03,20.30
2017,09,05,04,04,20.30
2017,09,05,04,05,20.30
2017,09,05,04,06,20.20
2017,09,05,04,07,20.20
2017,09,05,04,08,20.20
2017,09,05,04,09,20.20
2017,09,05,04,10,20.20
2017,09,05,04,11,20.20
2017,09,05,04,12,20.20
2017,09,05,04,13,20.20
2017,09,05,04,14,20.20
2017,09,05,04,15,20.20
2017,09,05,04,16,20.20
2017,09,05,04,17,20.10
2017,09,05,04,18,20.10
2017,09,05,04,19,20.10
2017,09,05,04,20,20.10
2017,09,05,04,21,20.10
2017,09,05,04,22,20.10
2017,09,05,04,23,20.10
2017,09,05,04,24,20.10
2017,09,05,04,25,20.10
2017,09,05,04,26,20.10
2017,09,05,04,27,20.10
2017,09,05,04,28,20.10
2017,09,05,04,29,20.10
2017,09,05,04,30,20.10
2017,09,05,04,31,20.10
2017,09,05,04,32,20.10
2017,09,05,04,33,20.10
2017,09,05,04,34,20.10
2017,09,05,04,35,20.10
2017,09,05,04,36,20.00
2017,09,05,04,37,20.00
2017,09,05,04,38,20.00
2017,09,05,04,39,20.00
2017,09,05,04,40,20.00
2017,09,05,04,41,20.00
2017,09,05,04,42,20.00
2017,09,05,04,43,19.90
2017,09,05,04,44,19.90
2017,09,05,04,45,19.90
2017,09,05,04,46,19.90
2017,09,05,04,47,19.90
2017,09,05,04,48,19.90
2017,09,05,04,49,19.90
2017,09,05,04,50,19.90
2017,09,05,04,51,19.90
2017,09,05,04,52,19.90
2017,09,05,04,53,19.90
2017,09,05,04,54,19.90
2017,09,05,04,55,19.90
2017,09,05,04,56,19.90
2017,09,05,04,57,19.90
2017,09,05,04,58,19.90
2017,09,05,04,59,19.90
2017,09,05,05,00,19.90
2017,09,05,05,01,19.90
2017,09,05,05,02,19.90
2017,09,05,05,03,19.90
2017,09,05,05,04,19.90
2017,09,05,05,05,19.90
2017,09,05,05,06,19.90
2017,09,05,05,07,19.90
2017,09,05,05,08,19.90
2017,09,05,05,09,19.90
2017,09,05,05,10,19.90
2017,09,05,05,11,19.90
2017,09,05,05,12,19.90
2017,09,05,05,13,19.90
2017,09,05,05,14,19.90
2017,09,05,05,15,19.90
2017,09,05,05,16,19.90
2017,09,05,05,17,19.90
2017,09,05,05,18,19.90
2017,09,05,05,19,19.80
2017,09,05,05,20,19.80
2017,09,05,05,21,19.80
2017,09,05,05,22,19.80
2017,09,05,05,23,19.80
2017,09,05,05,24,19.80
2017,09,05,05,25,19.80
2017,09,05,05,26,19.80
2017,09,05,05,27,19.80
2017,09,05,05,28,19.80
2017,09,05,05,29,19.80
2017,09,05,05,30,19.80
2017,09,05,05,31,19.70
2017,09,05,05,32,19.70
2017,09,05,05,33,19.70
2017,09,05,05,34,19.70
2017,09,05,05,35,19.70
2017,09,05,05,36,19.70
2017,09,05,05,37,19.70
2017,09,05,05,38,19.70
2017,09,05,05,39,19.70
2017,09,05,05,40,19.70
2017,09,05,05,41,19.70
2017,09,05,05,42,19.60
2017,09,05,05,43,19.60
2017,09,05,05,44,19.60
2017,09,05,05,45,19.60
2017,09,05,05,46,19.60
2017,09,05,05,47,19.60
2017,09,05,05,48,19.60
2017,09,05,05,49,19.60
2017,09,05,05,50,19.60
2017,09,05,05,51,19.60
2017,09,05,05,52,19.60
2017,09,05,05,53,19.60
2017,09,05,05,54,19.60
2017,09,05,05,55,19.60
2017,09,05,05,56,19.60
2017,09,05,05,57,19.60
2017,09,05,05,58,19.60
2017,09,05,05,59,19.60
2017,09,05,06,00,19.60
2017,09,05,06,01,19.60
2017,09,05,06,02,19.60
2017,09,05,06,03,19.60
2017,09,05,06,04,19.60
2017,09,05,06,05,19.60
2017,09,05,06,06,19.60
2017,09,05,06,07,19.60
2017,09,05,06,08,19.60
2017,09,05,06,09,19.60
2017,09,05,06,10,19.60
2017,09,05,06,11,19.60
2017,09,05,06,12,19.60
2017,09,05,06,13,19.60
2017,09,05,06,14,19.60
2017,09,05,06,15,19.60
2017,09,05,06,16,19.60
2017,09,05,06,17,19.60
2017,09,05,06,18,19.60
2017,09,05,06,19,19.70
2017,09,05,06,20,19.70
2017,09,05,06,21,19.70
2017,09,05,06,22,19.70
2017,09,05,06,23,19.70
2017,09,05,06,24,19.70
2017,09,05,06,25,19.70
2017,09,05,06,26,19.70
2017,09,05,06,27,19.70
2017,09,05,06,28,19.70
2017,09,05,06,29,19.70
2017,09,05,06,30,19.70
2017,09,05,06,31,19.70
2017,09,05,06,32,19.70
2017,09,05,06,33,19.70
2017,09,05,06,34,19.70
2017,09,05,06,35,19.80
2017,09,05,06,36,19.80
2017,09,05,06,37,19.80
2017,09,05,06,38,19.80
2017,09,05,06,39,19.80
2017,09,05,06,40,19.80
2017,09,05,06,41,19.80
2017,09,05,06,42,19.80
2017,09,05,06,43,19.80
2017,09,05,06,44,19.70
2017,09,05,06,45,19.70
2017,09,05,06,46,19.70
2017,09,05,06,47,19.70
2017,09,05,06,48,19.70
2017,09,05,06,49,19.70
2017,09,05,06,50,19.70
2017,09,05,06,51,19.70
2017,09,05,06,52,19.70
2017,09,05,06,53,19.70
2017,09,05,06,54,19.70
2017,09,05,06,55,19.70
2017,09,05,06,56,19.70
2017,09,05,06,57,19.70
2017,09,05,06,58,19.70
2017,09,05,06,59,19.70
2017,09,05,07,00,19.70
2017,09,05,07,01,19.70
2017,09,05,07,02,19.70
2017,09,05,07,03,19.70
2017,09,05,07,04,19.70
2017,09,05,07,05,19.70
2017,09,05,07,06,19.70
2017,09,05,07,07,19.70
2017,09,05,07,08,19.70
2017,09,05,07,09,19.70
2017,09,05,07,10,19.70
2017,09,05,07,11,19.60
2017,09,05,07,12,19.60
2017,09,05,07,13,19.60
2017,09,05,07,14,19.60
2017,09,05,07,15,19.60
2017,09,05,07,16,19.60
2017,09,05,07,17,19.60
2017,09,05,07,18,19.50
2017,09,05,07,19,19.50
2017,09,05,07,20,19.50
2017,09,05,07,21,19.50
2017,09,05,07,22,19.50
2017,09,05,07,23,19.40
2017,09,05,07,24,19.40
2017,09,05,07,25,19.40
2017,09,05,07,26,19.40
2017,09,05,07,27,19.40
2017,09,05,07,28,19.40
2017,09,05,07,29,19.40
2017,09,05,07,30,19.40
2017,09,05,07,31,19.40
2017,09,05,07,32,19.40
2017,09,05,07,33,19.40
2017,09,05,07,34,19.50
2017,09,05,07,35,19.50
2017,09,05,07,36,19.50
2017,09,05,07,37,19.50
2017,09,05,07,38,19.50
2017,09,05,07,39,19.50
2017,09,05,07,40,19.50
2017,09,05,07,41,19.50
2017,09,05,07,42,19.50
2017,09,05,07,43,19.40
2017,09,05,07,44,19.40
2017,09,05,07,45,19.40
2017,09,05,07,46,19.40
2017,09,05,07,47,19.40
2017,09,05,07,48,19.40
2017,09,05,07,49,19.40
2017,09,05,07,50,19.40
2017,09,05,07,51,19.40
2017,09,05,07,52,19.40
2017,09,05,07,53,19.40
2017,09,05,07,54,19.40
2017,09,05,07,55,19.40
2017,09,05,07,56,19.40
2017,09,05,07,57,19.50
2017,09,05,07,58,19.50
2017,09,05,07,59,19.50
2017,09,05,08,00,19.50
2017,09,05,08,01,19.50
2017,09,05,08,02,19.50
2017,09,05,08,03,19.50
2017,09,05,08,04,19.50
2017,09,05,08,05,19.50
2017,09,05,08,06,19.60
2017,09,05,08,07,19.60
2017,09,05,08,08,19.60
2017,09,05,08,09,19.60
2017,09,05,08,10,19.60
2017,09,05,08,11,19.60
2017,09,05,08,12,19.60
2017,09,05,08,13,19.60
2017,09,05,08,14,19.60
2017,09,05,08,15,19.60
2017,09,05,08,16,19.60
2017,09,05,08,17,19.60
2017,09,05,08,18,19.70
2017,09,05,08,19,19.70
2017,09,05,08,20,19.70
2017,09,05,08,21,19.70
2017,09,05,08,22,19.70
2017,09,05,08,23,19.70
2017,09,05,08,24,19.70
2017,09,05,08,25,19.70
2017,09,05,08,26,19.70
2017,09,05,08,27,19.70
2017,09,05,08,28,19.70
2017,09,05,08,29,19.70
2017,09,05,08,30,19.70
2017,09,05,08,31,19.70
2017,09,05,08,32,19.70
2017,09,05,08,33,19.70
2017,09,05,08,34,19.70
2017,09,05,08,35,19.70
2017,09,05,08,36,19.70
2017,09,05,08,37,19.80
2017,09,05,08,38,19.80
2017,09,05,08,39,19.80
2017,09,05,08,40,19.80
2017,09,05,08,41,19.80
2017,09,05,08,42,19.80
2017,09,05,08,43,19.80
2017,09,05,08,44,19.80
2017,09,05,08,45,19.80
2017,09,05,08,46,19.90
2017,09,05,08,47,19.90
2017,09,05,08,48,19.90
2017,09,05,08,49,19.90
2017,09,05,08,50,19.90
2017,09,05,08,51,19.90
2017,09,05,08,52,19.90
2017,09,05,08,53,19.90
2017,09,05,08,54,20.00
2017,09,05,08,55,20.00
2017,09,05,08,56,20.00
2017,09,05,08,57,20.10
2017,09,05,08,58,20.10
2017,09,05,08,59,20.10
2017,09,05,09,00,20.10
2017,09,05,09,01,20.10
2017,09,05,09,02,20.10
2017,09,05,09,03,20.10
2017,09,05,09,04,20.10
2017,09,05,09,05,20.10
2017,09,05,09,06,20.10
2017,09,05,09,07,20.10
2017,09,05,09,08,20.10
2017,09,05,09,09,20.10
2017,09,05,09,10,20.10
2017,09,05,09,11,20.10
2017,09,05,09,12,20.10
2017,09,05,09,13,20.10
2017,09,05,09,14,20.20
2017,09,05,09,15,20.20
2017,09,05,09,16,20.20
2017,09,05,09,17,20.20
2017,09,05,09,18,20.20
2017,09,05,09,19,20.20
2017,09,05,09,20,20.20
2017,09,05,09,21,20.20
2017,09,05,09,22,20.30
2017,09,05,09,23,20.30
2017,09,05,09,24,20.30
2017,09,05,09,25,20.30
2017,09,05,09,26,20.40
2017,09,05,09,27,20.40
2017,09,05,09,28,20.40
2017,09,05,09,29,20.40
2017,09,05,09,30,20.50
2017,09,05,09,31,20.50
2017,09,05,09,32,20.50
2017,09,05,09,33,20.60
2017,09,05,09,34,20.60
2017,09,05,09,35,20.70
2017,09,05,09,36,20.70
2017,09,05,09,37,20.70
2017,09,05,09,38,20.80
2017,09,05,09,39,20.80
2017,09,05,09,40,20.90
2017,09,05,09,41,20.90
2017,09,05,09,42,21.00
2017,09,05,09,43,21.10
2017,09,05,09,44,21.20
2017,09,05,09,45,21.20
2017,09,05,09,46,21.30
2017,09,05,09,47,21.30
2017,09,05,09,48,21.40
2017,09,05,09,49,21.50
2017,09,05,09,50,21.60
2017,09,05,09,51,21.60
2017,09,05,09,52,21.60
2017,09,05,09,53,21.70
2017,09,05,09,54,21.70
2017,09,05,09,55,21.70
2017,09,05,09,56,21.80
2017,09,05,09,57,21.80
2017,09,05,09,58,21.80
2017,09,05,09,59,21.90
2017,09,05,10,00,22.00
2017,09,05,10,01,22.00
2017,09,05,10,02,22.10
2017,09,05,10,03,22.20
2017,09,05,10,04,22.20
2017,09,05,10,05,22.30
2017,09,05,10,06,22.30
2017,09,05,10,07,22.40
2017,09,05,10,08,22.40
2017,09,05,10,09,22.50
2017,09,05,10,10,22.50
2017,09,05,10,11,22.60
2017,09,05,10,12,22.60
2017,09,05,10,13,22.70
2017,09,05,10,14,22.70
2017,09,05,10,15,22.80
2017,09,05,10,16,22.80
2017,09,05,10,17,22.90
2017,09,05,10,18,22.90
2017,09,05,10,19,22.90
2017,09,05,10,20,23.00
2017,09,05,10,21,23.10
2017,09,05,10,22,23.10
2017,09,05,10,23,23.20
2017,09,05,10,24,23.20
2017,09,05,10,25,23.20
2017,09,05,10,26,23.30
2017,09,05,10,27,23.30
2017,09,05,10,28,23.30
2017,09,05,10,29,23.30
2017,09,05,10,30,23.40
2017,09,05,10,31,23.40
2017,09,05,10,32,23.40
2017,09,05,10,33,23.40
2017,09,05,10,34,23.40
2017,09,05,10,35,23.40
2017,09,05,10,36,23.40
2017,09,05,10,37,23.40
2017,09,05,10,38,23.40
2017,09,05,10,39,23.50
2017,09,05,10,40,23.50
2017,09,05,10,41,23.50
2017,09,05,10,42,23.60
2017,09,05,10,43,23.60
2017,09,05,10,44,23.60
2017,09,05,10,45,23.70
2017,09,05,10,46,23.70
2017,09,05,10,47,23.70
2017,09,05,10,48,23.70
2017,09,05,10,49,23.80
2017,09,05,10,50,23.80
2017,09,05,10,51,23.80
2017,09,05,10,52,23.80
2017,09,05,10,53,23.80
2017,09,05,10,54,23.80
2017,09,05,10,55,23.80
2017,09,05,10,56,23.80
2017,09,05,10,57,23.80
2017,09,05,10,58,23.80
2017,09,05,10,59,23.80
2017,09,05,11,00,23.80
2017,09,05,11,01,23.80
2017,09,05,11,02,23.80
2017,09,05,11,03,23.80
2017,09,05,11,04,23.80
2017,09,05,11,05,23.80
2017,09,05,11,06,23.80
2017,09,05,11,07,23.80
2017,09,05,11,08,23.90
2017,09,05,11,09,23.90
2017,09,05,11,10,23.90
2017,09,05,11,11,23.90
2017,09,05,11,12,23.90
2017,09,05,11,13,23.90
2017,09,05,11,14,23.90
2017,09,05,11,15,23.90
2017,09,05,11,16,23.90
2017,09,05,11,17,23.90
2017,09,05,11,18,23.90
2017,09,05,11,19,23.90
2017,09,05,11,20,23.90
2017,09,05,11,21,23.90
2017,09,05,11,22,23.90
2017,09,05,11,23,23.90
2017,09,05,11,24,23.90
2017,09,05,11,25,23.80
2017,09,05,11,26,23.80
2017,09,05,11,27,23.80
2017,09,05,11,28,23.80
2017,09,05,11,29,23.80
2017,09,05,11,30,23.80
2017,09,05,11,31,23.80
2017,09,05,11,32,23.80
2017,09,05,11,33,23.80
2017,09,05,11,34,23.80
2017,09,05,11,35,23.80
2017,09,05,11,36,23.80
2017,09,05,11,37,23.90
2017,09,05,11,38,23.90
2017,09,05,11,39,23.90
2017,09,05,11,40,23.90
2017,09,05,11,41,24.00
2017,09,05,11,42,24.00
2017,09,05,11,43,24.10
2017,09,05,11,44,24.10
2017,09,05,11,45,24.10
2017,09,05,11,46,24.20
2017,09,05,11,47,24.20
2017,09,05,11,48,24.20
2017,09,05,11,49,24.30
2017,09,05,11,50,24.30
2017,09,05,11,51,24.30
2017,09,05,11,52,24.30
2017,09,05,11,53,24.30
2017,09,05,11,54,24.40
2017,09,05,11,55,24.50
2017,09,05,11,56,24.50
2017,09,05,11,57,24.60
2017,09,05,11,58,24.60
2017,09,05,11,59,24.60
2017,09,05,12,00,24.70
2017,09,05,12,01,24.70
2017,09,05,12,02,24.70
2017,09,05,12,03,24.70
2017,09,05,12,04,24.70
2017,09,05,12,05,24.70
2017,09,05,12,06,24.70
2017,09,05,12,07,24.70
2017,09,05,12,08,24.70
2017,09,05,12,09,24.70
2017,09,05,12,10,24.80
2017,09,05,12,11,24.80
2017,09,05,12,12,24.80
2017,09,05,12,13,24.80
2017,09,05,12,14,24.80
2017,09,05,12,15,24.80
2017,09,05,12,16,24.80
2017,09,05,12,17,24.90
2017,09,05,12,18,24.90
2017,09,05,12,19,24.90
2017,09,05,12,20,25.00
2017,09,05,12,21,25.00
2017,09,05,12,22,24.90
2017,09,05,12,23,25.00
2017,09,05,12,24,25.00
2017,09,05,12,25,25.00
2017,09,05,12,26,25.00
2017,09,05,12,27,25.00
2017,09,05,12,28,25.00
2017,09,05,12,29,25.00
2017,09,05,12,30,25.00
2017,09,05,12,31,25.00
2017,09,05,12,32,25.10
2017,09,05,12,33,25.00
2017,09,05,12,34,25.00
2017,09,05,12,35,25.00
2017,09,05,12,36,25.00
2017,09,05,12,37,25.00
2017,09,05,12,38,25.00
2017,09,05,12,39,25.00
2017,09,05,12,40,24.90
2017,09,05,12,41,25.00
2017,09,05,12,42,25.00
2017,09,05,12,43,25.00
2017,09,05,12,44,25.00
2017,09,05,12,45,25.10
2017,09,05,12,46,25.10
2017,09,05,12,47,25.10
2017,09,05,12,48,25.10
2017,09,05,12,49,25.20
2017,09,05,12,50,25.20
2017,09,05,12,51,25.20
2017,09,05,12,52,25.30
2017,09,05,12,53,25.30
2017,09,05,12,54,25.40
2017,09,05,12,55,25.40
2017,09,05,12,56,25.40
2017,09,05,12,57,25.40
2017,09,05,12,58,25.40
2017,09,05,12,59,25.50
2017,09,05,13,00,25.50
2017,09,05,13,01,25.50
2017,09,05,13,02,25.50
2017,09,05,13,03,25.50
2017,09,05,13,04,25.50
2017,09,05,13,05,25.50
2017,09,05,13,06,25.50
2017,09,05,13,07,25.50
2017,09,05,13,08,25.40
2017,09,05,13,09,25.30
2017,09,05,13,10,25.30
2017,09,05,13,11,25.20
2017,09,05,13,12,25.10
2017,09,05,13,13,25.00
2017,09,05,13,14,25.00
2017,09,05,13,15,24.90
2017,09,05,13,16,24.80
2017,09,05,13,17,24.80
2017,09,05,13,18,24.70
2017,09,05,13,19,24.60
2017,09,05,13,20,24.50
2017,09,05,13,21,24.40
2017,09,05,13,22,24.40
2017,09,05,13,23,24.30
2017,09,05,13,24,24.20
2017,09,05,13,25,24.20
2017,09,05,13,26,24.10
2017,09,05,13,27,24.10
2017,09,05,13,28,24.10
2017,09,05,13,29,24.10
2017,09,05,13,30,24.00
2017,09,05,13,31,24.00
2017,09,05,13,32,24.00
2017,09,05,13,33,23.90
2017,09,05,13,34,23.90
2017,09,05,13,35,23.90
2017,09,05,13,36,23.90
2017,09,05,13,37,23.80
2017,09,05,13,38,23.80
2017,09,05,13,39,23.80
2017,09,05,13,40,23.80
2017,09,05,13,41,23.80
2017,09,05,13,42,23.80
2017,09,05,13,43,23.90
2017,09,05,13,44,23.90
2017,09,05,13,45,23.90
2017,09,05,13,46,24.00
2017,09,05,13,47,24.00
2017,09,05,13,48,24.10
2017,09,05,13,49,24.10
2017,09,05,13,50,24.10
2017,09,05,13,51,24.20
2017,09,05,13,52,24.20
2017,09,05,13,53,24.30
2017,09,05,13,54,24.30
2017,09,05,13,55,24.30
2017,09,05,13,56,24.40
2017,09,05,13,57,24.40
2017,09,05,13,58,24.50
2017,09,05,13,59,24.50
2017,09,05,14,00,24.60
2017,09,05,14,01,24.60
2017,09,05,14,02,24.60
2017,09,05,14,03,24.70
2017,09,05,14,04,24.70
2017,09,05,14,05,24.80
2017,09,05,14,06,24.80
2017,09,05,14,07,24.90
2017,09,05,14,08,24.90
2017,09,05,14,09,24.90
2017,09,05,14,10,24.90
2017,09,05,14,11,25.00
2017,09,05,14,12,25.00
2017,09,05,14,13,25.00
2017,09,05,14,14,25.00
2017,09,05,14,15,25.00
2017,09,05,14,16,25.00
2017,09,05,14,17,25.00
2017,09,05,14,18,25.00
2017,09,05,14,19,25.00
2017,09,05,14,20,24.90
2017,09,05,14,21,24.90
2017,09,05,14,22,24.90
2017,09,05,14,23,24.90
2017,09,05,14,24,24.90
2017,09,05,14,25,24.90
2017,09,05,14,26,24.90
2017,09,05,14,27,24.90
2017,09,05,14,28,24.90
2017,09,05,14,29,25.00
2017,09,05,14,30,25.00
2017,09,05,14,31,25.00
2017,09,05,14,32,25.00
2017,09,05,14,33,25.10
2017,09,05,14,34,25.10
2017,09,05,14,35,25.10
2017,09,05,14,36,25.10
2017,09,05,14,37,25.10
2017,09,05,14,38,25.20
2017,09,05,14,39,25.20
2017,09,05,14,40,25.20
2017,09,05,14,41,25.30
2017,09,05,14,42,25.30
2017,09,05,14,43,25.30
2017,09,05,14,44,25.30
2017,09,05,14,45,25.30
2017,09,05,14,46,25.30
2017,09,05,14,47,25.40
2017,09,05,14,48,25.40
2017,09,05,14,49,25.40
2017,09,05,14,50,25.40
2017,09,05,14,51,25.40
2017,09,05,14,52,25.40
2017,09,05,14,53,25.50
2017,09,05,14,54,25.50
2017,09,05,14,55,25.50
2017,09,05,14,56,25.60
2017,09,05,14,57,25.60
2017,09,05,14,58,25.60
2017,09,05,14,59,25.70
2017,09,05,15,00,25.70
2017,09,05,15,01,25.70
2017,09,05,15,02,25.70
2017,09,05,15,03,25.70
2017,09,05,15,04,25.70
2017,09,05,15,05,25.60
2017,09,05,15,06,25.60
2017,09,05,15,07,25.60
2017,09,05,15,08,25.50
2017,09,05,15,09,25.40
2017,09,05,15,10,25.30
2017,09,05,15,11,25.10
2017,09,05,15,12,25.00
2017,09,05,15,13,24.90
2017,09,05,15,14,24.80
2017,09,05,15,15,24.70
2017,09,05,15,16,24.60
2017,09,05,15,17,24.50
2017,09,05,15,18,24.40
2017,09,05,15,19,24.30
2017,09,05,15,20,24.30
2017,09,05,15,21,24.30
2017,09,05,15,22,24.30
2017,09,05,15,23,24.30
2017,09,05,15,24,24.30
2017,09,05,15,25,24.30
2017,09,05,15,26,24.40
2017,09,05,15,27,24.40
2017,09,05,15,28,24.40
2017,09,05,15,29,24.40
2017,09,05,15,30,24.40
2017,09,05,15,31,24.40
2017,09,05,15,32,24.40
2017,09,05,15,33,24.50
2017,09,05,15,34,24.50
2017,09,05,15,35,24.50
2017,09,05,15,36,24.50
2017,09,05,15,37,24.50
2017,09,05,15,38,24.40
2017,09,05,15,39,24.40
2017,09,05,15,40,24.40
2017,09,05,15,41,24.40
2017,09,05,15,42,24.40
2017,09,05,15,43,24.30
2017,09,05,15,44,24.30
2017,09,05,15,45,24.30
2017,09,05,15,46,24.30
2017,09,05,15,47,24.30
2017,09,05,15,48,24.30
2017,09,05,15,49,24.20
2017,09,05,15,50,24.20
2017,09,05,15,51,24.10
2017,09,05,15,52,24.10
2017,09,05,15,53,24.10
2017,09,05,15,54,24.10
2017,09,05,15,55,24.20
2017,09,05,15,56,24.20
2017,09,05,15,57,24.20
2017,09,05,15,58,24.20
2017,09,05,15,59,24.30
2017,09,05,16,00,24.30
2017,09,05,16,01,24.30
2017,09,05,16,02,24.40
2017,09,05,16,03,24.50
2017,09,05,16,04,24.50
2017,09,05,16,05,24.60
2017,09,05,16,06,24.60
2017,09,05,16,07,24.70
2017,09,05,16,08,24.80
2017,09,05,16,09,24.80
2017,09,05,16,10,24.90
2017,09,05,16,11,25.00
2017,09,05,16,12,25.10
2017,09,05,16,13,25.20
2017,09,05,16,14,25.30
2017,09,05,16,15,25.40
2017,09,05,16,16,25.50
2017,09,05,16,17,25.60
2017,09,05,16,18,25.70
2017,09,05,16,19,25.80
2017,09,05,16,20,25.90
2017,09,05,16,21,26.00
2017,09,05,16,22,26.10
2017,09,05,16,23,26.20
2017,09,05,16,24,26.30
2017,09,05,16,25,26.40
2017,09,05,16,26,26.50
2017,09,05,16,27,26.50
2017,09,05,16,28,26.60
2017,09,05,16,29,26.60
2017,09,05,16,30,26.70
2017,09,05,16,31,26.70
2017,09,05,16,32,26.70
2017,09,05,16,33,26.70
2017,09,05,16,34,26.80
2017,09,05,16,35,26.80
2017,09,05,16,36,26.90
2017,09,05,16,37,26.90
2017,09,05,16,38,27.00
2017,09,05,16,39,27.10
2017,09,05,16,40,27.10
2017,09,05,16,41,27.20
2017,09,05,16,42,27.20
2017,09,05,16,43,27.20
2017,09,05,16,44,27.30
2017,09,05,16,45,27.30
2017,09,05,16,46,27.30
2017,09,05,16,47,27.30
2017,09,05,16,48,27.30
2017,09,05,16,49,27.30
2017,09,05,16,50,27.40
2017,09,05,16,51,27.40
2017,09,05,16,52,27.50
2017,09,05,16,53,27.50
2017,09,05,16,54,27.60
2017,09,05,16,55,27.60
2017,09,05,16,56,27.60
2017,09,05,16,57,27.70
2017,09,05,16,58,27.80
2017,09,05,16,59,27.80
2017,09,05,17,00,27.80
2017,09,05,17,01,27.80
2017,09,05,17,02,27.80
2017,09,05,17,03,27.90
2017,09,05,17,04,27.90
2017,09,05,17,05,27.90
2017,09,05,17,06,27.90
2017,09,05,17,07,27.90
2017,09,05,17,08,27.90
2017,09,05,17,09,27.80
2017,09,05,17,10,27.80
2017,09,05,17,11,27.80
2017,09,05,17,12,27.70
2017,09,05,17,13,27.60
2017,09,05,17,14,27.50
2017,09,05,17,15,27.30
2017,09,05,17,16,27.10
2017,09,05,17,17,26.90
2017,09,05,17,18,26.80
2017,09,05,17,19,26.60